Showing default

GONETS M 15 (M25), 44906

Orbit data source: Space-Track

GONETS M 15 (M25), 44906 is a payload satellite owned by Gonets (CIS) in LEO that was launched on Thu, 26 Dec 2019 UTC via an ROKOT launch vehicle from the Plesetsk Missile And Space Complex (PKMTR). Payload-class satellites include a variety of spacecraft equipped with specific instruments for various scientific and technological missions. These include communications satellites like Starlink; space stations such as the ISS; scientific satellites like the Hubble; Earth observation satellites from companies like Planet Labs, Umbra, and HawkEye 360; GPS; miniature CubeSats for education and research; and military/defense satellites.

Loading next visibility...
Identifier
44906, 2019-096B
Orbit
LEO
Country
Flag of CISCIS
Related business
Manufacturer
Resehetnev ISS
Mission
Operational Commercial Communications
Bus & Motor
STRELA-3M, Unknown motor
Mass
225 kg wet, 225 kg dry
Launch date (UTC)
2019-12-26 (6 years ago)
Launch vehicle
ROKOT
Launch site
Plesetsk Missile And Space Complex (PKMTR)
Object type
Payload
Rocket body
Debris
Shape & HBR
Cyl + 1 Ant, 3.5 m
Radar Cross Section
1.798 m², Large (>1 m²)

Expand to show TLE details & history
Last TLE update: 8 hours ago

TLE from 8 hours ago
0 GONETS M 15 (M25)
1 44906U 19096B   26036.46296774 -.00000005  00000-0 -10602-3 0  9999
2 44906  82.5287 166.7314 0016320 104.9388 255.3500 12.42866158277289
Epoch: 2026-02-05T11:06Z
TLE epoch observation values (Epoch: 2026-02-05T11:06:40.412Z)
Latitude
-0.00003°
Longitude
-135.55183°
Altitude
1,500.447 km
Speed
7.113 km/s
True Right ascension
11h 06m 55s
True Declination
0° 00' 00"
Sunlit
Object was in full shadow at epoch
Visualization orbit readout
Latitude
Unknown
Longitude
Unknown
Altitude
Unknown
Speed
Unknown
Apparent Right ascension
Unknown
Apparent Declination
Unknown
Sunlit
N/A
Visualization observer readout
Local Sidereal Time
20:50:34
Azimuth
Unknown
Elevation
Unknown
Doppler factor
Unknown
Orbital elements
Apogee altitude
1,504.671 km
Perigee altitude
1,478.983 km
Semi-major axis
7,869.964 km
Eccentricity
0.00163
Inclination
82.5287°
RAAN
166.7314°
Arg. of periapsis
104.9388°
True anomaly
255.16916°
Mean anomaly
255.35°
Eccentric anomaly
255.25957°
Mean motion
3.10874 °/min
Orbital period
115.8 mins
BSTAR
-0.00010602
Loading maneuver chart data...
Computing Atmospheric mass density...
Loading historical data...
Loading historical data...
Loading historical data...
Loading historical data...
Loading historical data...
Loading historical data...
Loading historical data...
Other satellites on launch #96 in the year 2019 (2019-12-26 UTC)

Documentation

Showing up to 5 results
|